Preview of NWS' New Version of Forecast
This preview is not operational and should not be used for support decisions.

Regional Weather Roundup (RWR)

Issued by National Weather Service (NWS)

                            
000
ASUS42 KTBW 182018
RWRFL 
FLORIDA REGIONAL WEATHER ROUNDUP
NATIONAL WEATHER SERVICE TAMPA BAY RUSKIN FL
400 PM EDT THU JUL 18 2019

NOTE: "FAIR" INDICATES FEW OR NO CLOUDS BELOW 12,000 FEET WITH NO
SIGNIFICANT WEATHER AND/OR OBSTRUCTIONS TO VISIBILITY.

FLZ001>010-012>015-112-114-115-182100-
PANHANDLE FLORIDA
  
CITY           SKY/WX    TMP DP  RH WIND       PRES   REMARKS
PENSACOLA      FAIR      92  77  61 S14       30.06F HX 105           
PENSACOLA NAS  PTSUNNY   90  77  65 SW14      30.06F HX 103           
MILTON NAS     PTSUNNY   94  74  52 SW17G29   30.03  THUNDER HX 104   
CRESTVIEW      FAIR      90  71  53 S14       30.06F HX  96           
DUKE FIELD     HVY RAIN  82  75  81 NW7       30.06S                  
VALPARAISO     FAIR      91  75  59 S12G21    30.05F HX 100           
MARY ESTHER    PTSUNNY   90  76  63 S12G18    30.05F HX 101           
TRI COUNTY     FAIR      95  74  50 VRB3      30.03F HX 105           
PANAMA CITY    FAIR      91  74  57 S14       30.04F HX 100           
TYNDALL AFB    FAIR      89  76  66 SW12      30.05F HX 100           
APALACHICOLA   FAIR      88  75  65 S10       30.07F HX  97           

STATION/POSITION SKY/WX   TEMP    WIND        PRES    WAVE   SWELL
                          AIR SEA DIR/SP/G            HT/PER HT/PER
                          (F)     (DEG/KT/KT) (MB)    (FT/S) (FT/S)
30.1N   87.6W              86 86  200/  6/ 10 1018.2F   1/ 5   2/ 5
29.2N   88.2W              86     200/  4/  6 1018.7
28.8N   86.0W              85 87  200/  4/  4 1018.5F   1/ 6   2/ 6
PANAMA CITY BEAC           86 86  230/  9/ 11 1018.8F
TOWER C                    85     230/  4/  5 1018.6F
28.5N   84.5W              85     190/  6/  8 1019.1F   1/ 4   2/ 5

$$
FLZ011-016>038-118-127-128-134-139-239-182100-
NORTH FLORIDA
  
CITY           SKY/WX    TMP DP  RH WIND       PRES   REMARKS
MARIANNA       PTSUNNY   94  74  52 S6        30.02F HX 104           
TALLAHASSEE    TSTM      87  75  67 S14       30.05F HX  96           
PERRY          FAIR      92  76  59 S10       30.06F HX 104           
LIVE OAK       MOSUNNY   91  73  55 VRB6      30.05F HX 100           
CROSS CITY     PTSUNNY   88  78  72 SW8       30.07F HX 102           
LAKE CITY      FAIR      88  73  62 SW9G17    30.07F HX  96           
GAINESVILLE    FAIR      91  72  53 S8        30.08F HX  98           
WILLISTON      FAIR      91  71  52 S3        30.06F HX  98           
PALATKA        FAIR      91  72  52 W5        30.06F HX  98           
MAYPORT NAS    CLOUDY    91  70  49 SE14      30.05F HX  96           
JACKSONVILLE   PTSUNNY   92  74  55 S13       30.04F HX 101           
JAX NAS        PTSUNNY   94  71  47 S10       30.06F THUNDER HX 101   
JAX CECIL      PTSUNNY   91  75  59 S9        30.06F HX 102           
FERNANDINA BEA FAIR      89  74  60 SE15      30.05F HX  98           
ST AUGUSTINE   FAIR      89  76  65 SE13      30.07F HX 100           
PALM COAST     SUNNY     90  72  55 W3        30.06F HX  96           

STATION/POSITION SKY/WX   TEMP    WIND        PRES    WAVE   SWELL
                          AIR SEA DIR/SP/G            HT/PER HT/PER
                          (F)     (DEG/KT/KT) (MB)    (FT/S) (FT/S)
SHELL POINT      NOT AVBL
KEATON BEACH               86     210/  8/  9 1018.2F
CEDAR KEY                  86     230/  3/  4 1018.4F
FERNANDINA                 92 87  140/  7/ 12 1018.4F
30.7N   81.3W                 84                N/A     2/ 8
MAYPORT                    89 83  150/  9/ 13 1018.2F
31.4N   80.9W              84 85  190/ 16/ 17 1017.1F   2/ 4   2/ 8
ST AUGUSTINE               82 83  140/  7/  8 1018.3F

$$
FLZ040-043>046-052-053-057-058-063-144-182100-
INTERIOR CENTRAL FLORIDA
  
CITY           SKY/WX    TMP DP  RH WIND       PRES   REMARKS
OCALA          FAIR      90  74  59 S8        30.07F HX  99           
LEESBURG       FAIR      89  74  60 W3        30.07F HX  98           
SANFORD        FAIR      83  71  67 SE15      30.07S                  
ORLANDO EXEC   PTSUNNY   90  71  53 S13       30.08R THUNDER HX  96   
ORLANDO INTL   PTSUNNY   89  71  55 SW9       30.08S THUNDER HX  95   
KISSIMMEE      FAIR      85  70  60 NW10      30.10R                  
WINTER HAVEN   FAIR      87  75  67 N5        30.09S HX  96           
LAKELAND       MOSUNNY   91  72  52 S7        30.07F HX  98           
BARTOW         PTSUNNY   91  73  55 SW7       30.07F HX 100           
SEBRING        FAIR      89  75  64 SE12      30.08F HX  99           
OKEECHOBEE     FAIR      86  73  66 S5        30.08F                  

$$
FLZ041-047-054-059-064-141-147-182100-
EAST CENTRAL FLORIDA
  
CITY           SKY/WX    TMP DP  RH WIND       PRES   REMARKS
ORMOND BEACH   MOSUNNY   82  75  78 VRB3      30.08S                  
DAYTONA BEACH  PTSUNNY   88  75  65 SE3       30.08R THUNDER HX  97   
DELAND         FAIR      86  73  66 NE8       30.07S                  
NEW SMYRNA BEA MOSUNNY   86  73  66 E12       30.08F                  
JFK SPACE CTR  MOSUNNY   89  64  44 SE7       30.07F                  
TITUSVILLE     PTSUNNY   90  75  62 SE13      30.09F HX 100           
CAPE CANAVERAL SUNNY     88  53  29 SE12      30.07F                  
PATRICK AFB    FAIR      86  79  77 SE8       30.07F HX 100           
MELBOURNE      FAIR      89  75  63 VRB7      30.07F HX  99           
VERO BEACH     FAIR      86  72  62 SE9       30.09F                  
FT PIERCE      FAIR      84  74  71 S5        30.09F                  
STUART         PTSUNNY   82  75  78 CALM      30.11F                  

STATION/POSITION SKY/WX   TEMP    WIND        PRES    WAVE   SWELL
                          AIR SEA DIR/SP/G            HT/PER HT/PER
                          (F)     (DEG/KT/KT) (MB)    (FT/S) (FT/S)
28.5N   80.2W              83 85  160/ 10/ 12 1018.8F   1/ 8   2/ 8
28.9N   78.5W              85 86  170/  8/ 12   N/A     2/ 8   2/ 8
TRIDENT PIER               88 84  110/  7/ 10 1020.6F
28.4N   80.5W                 83                N/A     1/ 8
27.5N   80.2W                 82                N/A     1/ 7

$$
FLZ050-056-061-142-242-148-248-149-249-151-251-155-255-
160-260-182100-
WEST CENTRAL FLORIDA
  
CITY           SKY/WX    TMP DP  RH WIND       PRES   REMARKS
CRYSTAL RIVER  FAIR      88  72  58 NW3       30.07F                  
INVERNESS      FAIR      88  77  70 CALM      30.07F HX 100           
BROOKSVILLE    FAIR      89  74  60 NW6       30.08F HX  98           
CLEARWATER AIR FAIR      88  72  58 NW7       30.07F                  
ST PETE CLEARW FAIR      89  72  56 MISG      30.07F HX  96           
TAMPA INTL     PTSUNNY   90  74  59 W12       30.07F THUNDER HX  99   
TAMPA EXEC     CLOUDY    86  70  58 S8G18     30.08S                  
PLANT CITY     LGT RAIN N/A N/A N/A MISG      30.09S                  
MACDILL AFB    FAIR      90  73  57 W9G17     30.06F HX  98           
PETER O KNIGHT FAIR      91  73  55 W8        30.06F HX 100           
ST PETERSBURG  PTSUNNY   88  74  63 N9        30.05F HX  96           
SARASOTA       TSTM      84  76  76 S10       30.07F                  
VENICE         FAIR      86  75  70 SW6       30.09F HX  95           

STATION/POSITION SKY/WX   TEMP    WIND        PRES    WAVE   SWELL
                          AIR SEA DIR/SP/G            HT/PER HT/PER
                          (F)     (DEG/KT/KT) (MB)    (FT/S) (FT/S)
27.3N   84.2W                 88                N/A     1/ 4
CLEARWATER BEACH           85 89  280/  7/  8 1019.2F
MIDDLE TAMPA BAY           85     260/  7/  8 1018.8F
VENICE                     86 86  250/  5/  6 1018.5F

$$
FLZ066-069-070-075>078-162-262-165-265-182100-
SOUTHWEST FLORIDA AND KEYS
  
CITY           SKY/WX    TMP DP  RH WIND       PRES   REMARKS
PUNTA GORDA    FAIR      85  73  67 S13       30.09F                  
FT MYERS       FAIR      81  68  64 SE8       30.07F                  
SOUTHWEST INTL LGT RAIN  79  70  74 S5        30.08F                  
MARCO ISLAND   LGT RAIN  76  74  93 MISG      30.08F                  
IMMOKALEE      FAIR      82  72  69 SW5       30.07F                  
MARATHON       FAIR      92  75  57 SE7       30.06F HX 103           
KEY WEST NAS   PTSUNNY   92  74  55 E7        30.06F HX 101           
KEY WEST INTL  FAIR      88  75  65 SE6       30.07F HX  97           

STATION/POSITION SKY/WX   TEMP    WIND        PRES    WAVE   SWELL
                          AIR SEA DIR/SP/G            HT/PER HT/PER
                          (F)     (DEG/KT/KT) (MB)    (FT/S) (FT/S)
NAPLES                     76 87              1019.0F
26.0N   85.6W              85 86  100/  8/ 10 1018.3F   2/ 5   2/ 5
DRY TORTUGAS               85      90/  6/  7 1018.7F
SAND KEY                   86      80/  4/  6 1017.2
SOMBRERO KEY               85      90/  5/  6 1018.2
LONG KEY                   87                 1017.5

$$
FLZ067-068-071>074-168-172>174-182100-
SOUTHEAST FLORIDA 
  
CITY           SKY/WX    TMP DP  RH WIND       PRES   REMARKS
W PALM BEACH   PTSUNNY   84  73  69 N6        30.09F                  
BOCA RATON     MOSUNNY   88  75  66 NW6       30.08F HX  97           
FT LAUDER-EXEC FAIR      88  73  61 W7        30.08F HX  95           
FT LAUDERDALE  PTSUNNY   87  71  58 SE3       30.08F                  
POMPANO BEACH  FAIR      89  71  55 E6        30.08F HX  95           
PEMBROKE PINES FAIR      88  72  58 SE6       30.09F                  
OPA LOCKA      FAIR      87  74  64 SE6       30.09S HX  95           
MIAMI          PTSUNNY   89  71  55 SE7       30.09F HX  95           
WEST KENDALL   PTSUNNY   87  75  67 N13G21    30.09R HX  96           
HOMESTEAD      FAIR      90  76  63 E7        30.07F HX 101           

STATION/POSITION SKY/WX   TEMP    WIND        PRES    WAVE   SWELL
                          AIR SEA DIR/SP/G            HT/PER HT/PER
                          (F)     (DEG/KT/KT) (MB)    (FT/S) (FT/S)
PORT EVERGLADES            87     110/  2/  4 1018.8
VIRGINIA KEY               85 89   60/  5/  7 1018.4F
LAKE WORTH                 83 86  170/  6/  7 1020.2F
FOWEY ROCKS